Time,TemperatureF,DewpointF,PressureIn,WindDirection,WindDirectionDegrees,WindSpeedMPH,WindSpeedGustMPH,Humidity,HourlyPrecipIn,Conditions,Clouds,dailyrainin,SoftwareType,DateUTC
2013-05-08 00:01:00,65.7,59.0,30.01,SW,232,1.0,0.0,79,0.00,CLR,,0.00,WeatherDisplay:10.37,2013-05-08 04:01:00,
2013-05-08 00:02:00,65.6,58.9,30.01,SW,232,1.1,0.0,79,0.00,CLR,,0.00,WeatherDisplay:10.37,2013-05-08 04:02:00,
2013-05-08 00:07:00,65.5,58.8,30.01,SW,232,0.0,0.0,79,0.00,CLR,,0.00,WeatherDisplay:10.37,2013-05-08 04:07:00,
2013-05-08 00:12:00,65.4,59.1,30.01,SW,229,1.1,1.1,80,0.00,CLR,,0.00,WeatherDisplay:10.37,2013-05-08 04:12:00,
2013-05-08 00:17:00,65.2,58.9,30.01,SW,229,0.0,0.0,80,0.00,CLR,,0.00,WeatherDisplay:10.37,2013-05-08 04:17:00,
2013-05-08 00:22:00,65.1,58.8,30.01,SW,229,0.0,0.0,80,0.00,CLR,,0.00,WeatherDisplay:10.37,2013-05-08 04:22:00,
2013-05-08 00:27:00,65.0,58.7,30.01,SW,229,0.0,0.0,80,0.00,CLR,,0.00,WeatherDisplay:10.37,2013-05-08 04:27:00,
2013-05-08 00:32:00,64.8,58.8,30.01,SW,229,1.1,1.1,81,0.00,CLR,,0.00,WeatherDisplay:10.37,2013-05-08 04:32:00,
2013-05-08 00:37:00,64.7,58.7,30.01,SW,229,0.0,0.0,81,0.00,CLR,,0.00,WeatherDisplay:10.37,2013-05-08 04:37:00,
2013-05-08 00:42:00,64.5,58.5,30.01,SW,229,0.0,0.0,81,0.00,CLR,,0.00,WeatherDisplay:10.37,2013-05-08 04:42:00,
2013-05-08 00:47:00,64.4,58.8,30.01,SW,229,0.0,0.0,82,0.00,CLR,,0.00,WeatherDisplay:10.37,2013-05-08 04:47:00,
2013-05-08 00:52:00,64.2,58.6,30.01,SW,229,0.0,0.0,82,0.00,CLR,,0.00,WeatherDisplay:10.37,2013-05-08 04:52:00,
2013-05-08 00:57:00,64.1,58.8,30.01,SW,229,0.0,0.0,83,0.00,CLR,,0.00,WeatherDisplay:10.37,2013-05-08 04:57:00,
2013-05-08 01:02:00,63.9,58.6,30.01,SW,229,0.0,0.0,83,0.00,CLR,,0.00,WeatherDisplay:10.37,2013-05-08 05:02:00,
2013-05-08 01:07:00,63.7,58.8,30.01,SW,229,0.0,0.0,84,0.00,CLR,,0.00,WeatherDisplay:10.37,2013-05-08 05:07:00,
2013-05-08 01:12:00,63.5,58.9,30.00,SW,229,0.0,0.0,85,0.00,CLR,,0.00,WeatherDisplay:10.37,2013-05-08 05:12:00,
2013-05-08 01:17:00,63.4,58.8,30.00,SW,229,0.0,0.0,85,0.00,CLR,,0.00,WeatherDisplay:10.37,2013-05-08 05:17:00,
2013-05-08 01:22:00,63.1,58.5,30.00,SW,229,0.0,0.0,85,0.00,CLR,,0.00,WeatherDisplay:10.37,2013-05-08 05:22:00,
2013-05-08 01:27:00,62.9,58.6,30.00,SW,229,0.0,0.0,86,0.00,CLR,,0.00,WeatherDisplay:10.37,2013-05-08 05:27:00,
2013-05-08 01:32:00,62.7,58.5,30.00,SW,229,0.0,0.0,86,0.00,CLR,,0.00,WeatherDisplay:10.37,2013-05-08 05:32:00,
2013-05-08 01:37:00,62.4,58.5,30.00,SW,229,0.0,0.0,87,0.00,CLR,,0.00,WeatherDisplay:10.37,2013-05-08 05:37:00,
2013-05-08 01:42:00,62.1,58.5,30.00,SW,229,0.0,0.0,88,0.00,CLR,,0.00,WeatherDisplay:10.37,2013-05-08 05:42:00,
2013-05-08 01:47:00,61.8,58.2,30.00,SW,229,0.0,0.0,88,0.00,CLR,,0.00,WeatherDisplay:10.37,2013-05-08 05:47:00,
2013-05-08 01:52:00,61.5,58.2,30.00,SW,229,0.0,0.0,89,0.00,CLR,,0.00,WeatherDisplay:10.37,2013-05-08 05:52:00,
2013-05-08 01:57:00,61.3,58.0,30.00,SW,229,0.0,0.0,89,0.00,CLR,,0.00,WeatherDisplay:10.37,2013-05-08 05:57:00,
2013-05-08 02:02:00,61.1,57.8,30.00,SW,229,0.0,0.0,89,0.00,CLR,,0.00,WeatherDisplay:10.37,2013-05-08 06:02:00,
2013-05-08 02:07:00,60.9,57.9,30.00,SW,229,0.0,0.0,90,0.00,CLR,,0.00,WeatherDisplay:10.37,2013-05-08 06:07:00,
2013-05-08 02:12:00,60.7,57.7,30.00,SW,229,0.0,0.0,90,0.00,CLR,,0.00,WeatherDisplay:10.37,2013-05-08 06:12:00,
2013-05-08 02:17:00,60.6,58.0,30.00,SW,229,0.0,0.0,91,0.00,CLR,,0.00,WeatherDisplay:10.37,2013-05-08 06:17:00,
2013-05-08 02:22:00,60.5,57.9,30.00,SW,229,0.0,0.0,91,0.00,CLR,,0.00,WeatherDisplay:10.37,2013-05-08 06:22:00,
2013-05-08 02:27:00,60.5,57.9,29.99,SW,229,0.0,0.0,91,0.00,CLR,,0.00,WeatherDisplay:10.37,2013-05-08 06:27:00,
2013-05-08 02:32:00,60.4,57.8,29.99,SW,229,0.0,0.0,91,0.00,CLR,,0.00,WeatherDisplay:10.37,2013-05-08 06:32:00,
2013-05-08 02:37:00,60.4,57.8,29.99,SW,229,0.0,0.0,91,0.00,CLR,,0.00,WeatherDisplay:10.37,2013-05-08 06:37:00,
2013-05-08 02:42:00,60.4,57.8,29.99,SW,229,0.0,0.0,91,0.00,CLR,,0.00,WeatherDisplay:10.37,2013-05-08 06:42:00,
2013-05-08 02:47:00,60.4,57.8,29.99,SW,229,0.0,0.0,91,0.00,CLR,,0.00,WeatherDisplay:10.37,2013-05-08 06:47:00,
2013-05-08 02:52:00,60.5,57.9,29.99,SW,229,0.0,0.0,91,0.00,CLR,,0.00,WeatherDisplay:10.37,2013-05-08 06:52:00,
2013-05-08 02:57:00,60.5,57.9,29.99,SW,229,0.0,0.0,91,0.00,CLR,,0.00,WeatherDisplay:10.37,2013-05-08 06:57:00,
2013-05-08 03:02:00,60.5,57.9,29.99,SW,229,0.0,0.0,91,0.00,CLR,,0.00,WeatherDisplay:10.37,2013-05-08 07:02:00,
2013-05-08 03:07:00,60.4,58.4,29.99,SW,229,0.0,0.0,93,0.00,CLR,,0.00,WeatherDisplay:10.37,2013-05-08 07:07:00,
2013-05-08 03:12:00,60.4,57.8,29.99,SW,229,0.0,0.0,91,0.00,CLR,,0.00,WeatherDisplay:10.37,2013-05-08 07:12:00,
2013-05-08 03:17:00,60.3,57.7,29.98,SW,229,0.0,0.0,91,0.00,CLR,,0.00,WeatherDisplay:10.37,2013-05-08 07:17:00,
2013-05-08 03:22:00,60.2,57.6,29.98,SW,229,0.0,0.0,91,0.00,CLR,,0.00,WeatherDisplay:10.37,2013-05-08 07:22:00,
2013-05-08 03:27:00,60.2,57.6,29.98,SW,229,0.0,0.0,91,0.00,CLR,,0.00,WeatherDisplay:10.37,2013-05-08 07:27:00,
2013-05-08 03:32:00,60.0,57.7,29.98,SW,229,0.0,0.0,92,0.00,CLR,,0.00,WeatherDisplay:10.37,2013-05-08 07:32:00,
2013-05-08 03:37:00,60.0,57.7,29.98,SW,229,0.0,0.0,92,0.00,CLR,,0.00,WeatherDisplay:10.37,2013-05-08 07:37:00,
2013-05-08 03:42:00,59.9,57.6,29.98,SW,229,0.0,0.0,92,0.00,CLR,,0.00,WeatherDisplay:10.37,2013-05-08 07:42:00,
2013-05-08 03:47:00,59.8,57.5,29.98,SW,229,0.0,0.0,92,0.00,CLR,,0.00,WeatherDisplay:10.37,2013-05-08 07:47:00,
2013-05-08 03:52:00,59.8,57.5,29.99,SW,229,0.0,0.0,92,0.00,CLR,,0.00,WeatherDisplay:10.37,2013-05-08 07:52:00,
2013-05-08 03:57:00,59.7,57.4,29.99,SW,229,0.0,0.0,92,0.00,CLR,,0.00,WeatherDisplay:10.37,2013-05-08 07:57:00,
2013-05-08 04:02:00,59.6,57.6,29.99,SW,229,0.0,0.0,93,0.00,CLR,,0.00,WeatherDisplay:10.37,2013-05-08 08:02:00,
2013-05-08 04:07:00,59.5,57.5,29.99,SW,229,0.0,0.0,93,0.00,CLR,,0.00,WeatherDisplay:10.37,2013-05-08 08:07:00,
2013-05-08 04:12:00,59.4,57.4,29.99,SW,229,0.0,0.0,93,0.00,CLR,,0.00,WeatherDisplay:10.37,2013-05-08 08:12:00,
2013-05-08 04:17:00,59.4,57.4,29.99,SW,229,0.0,0.0,93,0.00,CLR,,0.00,WeatherDisplay:10.37,2013-05-08 08:17:00,
2013-05-08 04:22:00,59.4,57.4,29.99,SW,229,0.0,0.0,93,0.00,CLR,,0.00,WeatherDisplay:10.37,2013-05-08 08:22:00,
2013-05-08 04:27:00,59.3,57.3,29.99,SW,229,0.0,0.0,93,0.00,CLR,,0.00,WeatherDisplay:10.37,2013-05-08 08:27:00,
2013-05-08 04:32:00,59.2,57.2,29.99,SW,229,0.0,0.0,93,0.00,CLR,,0.00,WeatherDisplay:10.37,2013-05-08 08:32:00,
2013-05-08 04:37:00,59.1,57.1,29.99,SW,229,0.0,0.0,93,0.00,CLR,,0.00,WeatherDisplay:10.37,2013-05-08 08:37:00,
2013-05-08 04:42:00,59.1,57.1,29.99,SW,229,0.0,0.0,93,0.00,CLR,,0.00,WeatherDisplay:10.37,2013-05-08 08:42:00,
2013-05-08 04:47:00,59.0,57.3,29.99,SW,229,0.0,0.0,94,0.00,CLR,,0.00,WeatherDisplay:10.37,2013-05-08 08:47:00,
2013-05-08 04:52:00,58.9,57.2,29.99,SW,229,0.0,0.0,94,0.00,CLR,,0.00,WeatherDisplay:10.37,2013-05-08 08:52:00,
2013-05-08 04:57:00,58.9,57.2,30.00,SW,229,0.0,0.0,94,0.00,CLR,,0.00,WeatherDisplay:10.37,2013-05-08 08:57:00,
2013-05-08 05:02:00,58.9,57.2,30.00,SW,229,0.0,0.0,94,0.00,CLR,,0.00,WeatherDisplay:10.37,2013-05-08 09:02:00,
2013-05-08 05:07:00,58.8,57.1,30.00,SW,229,0.0,0.0,94,0.00,CLR,,0.00,WeatherDisplay:10.37,2013-05-08 09:07:00,
2013-05-08 05:12:00,58.8,57.1,30.00,SW,229,0.0,0.0,94,0.00,CLR,,0.00,WeatherDisplay:10.37,2013-05-08 09:12:00,
2013-05-08 05:17:00,58.7,57.0,30.00,SW,229,0.0,0.0,94,0.00,CLR,,0.00,WeatherDisplay:10.37,2013-05-08 09:17:00,
2013-05-08 05:22:00,58.7,57.0,30.00,SW,229,0.0,0.0,94,0.00,CLR,,0.00,WeatherDisplay:10.37,2013-05-08 09:22:00,
2013-05-08 05:27:00,58.7,57.0,30.00,SW,229,0.0,0.0,94,0.00,CLR,,0.00,WeatherDisplay:10.37,2013-05-08 09:27:00,
2013-05-08 05:32:00,58.7,57.0,30.00,SW,229,0.0,0.0,94,0.00,CLR,,0.00,WeatherDisplay:10.37,2013-05-08 09:32:00,
2013-05-08 05:37:00,58.6,56.9,30.00,SW,229,0.0,0.0,94,0.00,CLR,,0.00,WeatherDisplay:10.37,2013-05-08 09:37:00,
2013-05-08 05:42:00,58.5,56.8,30.00,SW,229,0.0,0.0,94,0.00,CLR,,0.00,WeatherDisplay:10.37,2013-05-08 09:42:00,
2013-05-08 05:47:00,58.5,56.8,30.00,SW,229,0.0,0.0,94,0.00,CLR,,0.00,WeatherDisplay:10.37,2013-05-08 09:47:00,
2013-05-08 05:52:00,58.4,56.7,30.00,SW,229,0.0,0.0,94,0.00,CLR,,0.00,WeatherDisplay:10.37,2013-05-08 09:52:00,
2013-05-08 05:57:00,58.4,56.7,30.01,SW,229,0.0,0.0,94,0.00,CLR,,0.00,WeatherDisplay:10.37,2013-05-08 09:57:00,
2013-05-08 06:02:00,58.3,56.6,30.00,SW,229,0.0,0.0,94,0.00,CLR,,0.00,WeatherDisplay:10.37,2013-05-08 10:02:00,
2013-05-08 06:07:00,58.3,56.6,30.01,SW,229,0.0,0.0,94,0.00,CLR,,0.00,WeatherDisplay:10.37,2013-05-08 10:07:00,
2013-05-08 06:12:00,58.2,56.8,30.01,SW,229,0.0,0.0,95,0.00,CLR,,0.00,WeatherDisplay:10.37,2013-05-08 10:12:00,
2013-05-08 06:17:00,58.1,56.7,30.01,SW,229,0.0,0.0,95,0.00,CLR,,0.00,WeatherDisplay:10.37,2013-05-08 10:17:00,
2013-05-08 06:22:00,58.0,56.6,30.01,SW,229,0.0,0.0,95,0.00,CLR,,0.00,WeatherDisplay:10.37,2013-05-08 10:22:00,
2013-05-08 06:27:00,58.0,56.6,30.01,SW,229,0.0,0.0,95,0.00,CLR,,0.00,WeatherDisplay:10.37,2013-05-08 10:27:00,
2013-05-08 06:32:00,57.9,56.5,30.02,SW,229,0.0,0.0,95,0.00,CLR,,0.00,WeatherDisplay:10.37,2013-05-08 10:32:00,
2013-05-08 06:37:00,57.8,56.4,30.02,SW,229,0.0,0.0,95,0.00,CLR,,0.00,WeatherDisplay:10.37,2013-05-08 10:37:00,
2013-05-08 06:42:00,57.7,56.3,30.02,SW,229,0.0,0.0,95,0.00,CLR,,0.00,WeatherDisplay:10.37,2013-05-08 10:42:00,
2013-05-08 06:47:00,57.6,56.2,30.03,SW,229,0.0,0.0,95,0.00,CLR,,0.00,WeatherDisplay:10.37,2013-05-08 10:47:00,
2013-05-08 06:52:00,57.5,56.1,30.03,SW,229,0.0,0.0,95,0.00,CLR,,0.00,WeatherDisplay:10.37,2013-05-08 10:52:00,
2013-05-08 06:57:00,57.5,56.1,30.03,SW,229,0.0,0.0,95,0.00,CLR,,0.00,WeatherDisplay:10.37,2013-05-08 10:57:00,
2013-05-08 07:02:00,57.4,56.0,30.03,SW,229,0.0,0.0,95,0.00,CLR,,0.00,WeatherDisplay:10.37,2013-05-08 11:02:00,
2013-05-08 07:07:00,57.4,56.0,30.04,SW,229,0.0,0.0,95,0.00,CLR,,0.00,WeatherDisplay:10.37,2013-05-08 11:07:00,
2013-05-08 07:12:00,57.4,56.0,30.04,SW,229,0.0,0.0,95,0.00,CLR,,0.00,WeatherDisplay:10.37,2013-05-08 11:12:00,
2013-05-08 07:17:00,57.4,56.0,30.04,SW,229,0.0,0.0,95,0.00,CLR,,0.00,WeatherDisplay:10.37,2013-05-08 11:17:00,
2013-05-08 07:22:00,57.5,56.4,30.04,SW,229,0.0,0.0,96,0.00,CLR,,0.00,WeatherDisplay:10.37,2013-05-08 11:22:00,
2013-05-08 07:27:00,57.6,56.5,30.05,SW,229,0.0,0.0,96,0.00,CLR,,0.00,WeatherDisplay:10.37,2013-05-08 11:27:00,
2013-05-08 07:32:00,57.6,56.5,30.05,South,169,0.0,0.0,96,0.00,CLR,,0.00,WeatherDisplay:10.37,2013-05-08 11:32:00,
2013-05-08 07:37:00,57.7,56.6,30.05,South,169,0.0,0.0,96,0.00,CLR,,0.00,WeatherDisplay:10.37,2013-05-08 11:37:00,
2013-05-08 07:42:00,57.8,56.7,30.06,South,169,0.0,0.0,96,0.00,CLR,,0.00,WeatherDisplay:10.37,2013-05-08 11:42:00,
2013-05-08 07:47:00,58.0,56.9,30.05,South,169,0.0,0.0,96,0.00,CLR,,0.00,WeatherDisplay:10.37,2013-05-08 11:47:00,
2013-05-08 07:52:00,58.3,57.2,30.05,South,169,0.0,0.0,96,0.00,CLR,,0.00,WeatherDisplay:10.37,2013-05-08 11:52:00,
2013-05-08 07:57:00,58.6,57.5,30.06,South,169,0.0,0.0,96,0.00,CLR,,0.00,WeatherDisplay:10.37,2013-05-08 11:57:00,
2013-05-08 08:02:00,58.9,57.8,30.06,South,169,0.0,0.0,96,0.00,CLR,,0.00,WeatherDisplay:10.37,2013-05-08 12:02:00,
2013-05-08 08:07:00,59.1,58.2,30.06,South,169,0.0,0.0,97,0.00,CLR,,0.00,WeatherDisplay:10.37,2013-05-08 12:07:00,
2013-05-08 08:12:00,59.5,58.4,30.06,South,169,0.0,0.0,96,0.00,CLR,,0.00,WeatherDisplay:10.37,2013-05-08 12:12:00,
2013-05-08 08:17:00,59.8,58.9,30.07,South,169,0.0,0.0,97,0.00,CLR,,0.00,WeatherDisplay:10.37,2013-05-08 12:17:00,
2013-05-08 08:22:00,60.1,59.0,30.07,South,169,0.0,0.0,96,0.00,CLR,,0.00,WeatherDisplay:10.37,2013-05-08 12:22:00,
2013-05-08 08:27:00,60.4,59.3,30.07,South,169,0.0,0.0,96,0.00,CLR,,0.00,WeatherDisplay:10.37,2013-05-08 12:27:00,
2013-05-08 08:32:00,60.7,59.6,30.07,South,169,0.0,0.0,96,0.00,CLR,,0.00,WeatherDisplay:10.37,2013-05-08 12:32:00,
2013-05-08 08:37:00,61.0,59.9,30.07,South,169,0.0,0.0,96,0.00,CLR,,0.00,WeatherDisplay:10.37,2013-05-08 12:37:00,
2013-05-08 08:42:00,61.3,60.2,30.07,South,169,0.0,0.0,96,0.00,CLR,,0.00,WeatherDisplay:10.37,2013-05-08 12:42:00,
2013-05-08 08:47:00,61.6,60.2,30.07,South,169,0.0,0.0,95,0.00,CLR,,0.00,WeatherDisplay:10.37,2013-05-08 12:47:00,
2013-05-08 08:52:00,61.8,60.1,30.07,South,169,0.0,0.0,94,0.00,CLR,,0.00,WeatherDisplay:10.37,2013-05-08 12:52:00,
2013-05-08 08:57:00,62.2,60.5,30.07,South,169,0.0,0.0,94,0.00,CLR,,0.00,WeatherDisplay:10.37,2013-05-08 12:57:00,
2013-05-08 09:02:00,62.5,60.4,30.07,South,169,1.1,0.0,93,0.00,CLR,,0.00,WeatherDisplay:10.37,2013-05-08 13:02:00,
2013-05-08 09:07:00,62.9,60.5,30.07,South,169,0.0,0.0,92,0.00,CLR,,0.00,WeatherDisplay:10.37,2013-05-08 13:07:00,
2013-05-08 09:12:00,63.3,60.3,30.08,South,169,0.0,0.0,90,0.00,CLR,,0.00,WeatherDisplay:10.37,2013-05-08 13:12:00,
2013-05-08 09:17:00,63.8,60.5,30.08,South,169,0.0,0.0,89,0.00,CLR,,0.00,WeatherDisplay:10.37,2013-05-08 13:17:00,
2013-05-08 09:22:00,64.4,61.1,30.08,South,169,0.0,0.0,89,0.00,CLR,,0.00,WeatherDisplay:10.37,2013-05-08 13:22:00,
2013-05-08 09:27:00,64.7,61.1,30.08,South,169,0.0,0.0,88,0.00,CLR,,0.00,WeatherDisplay:10.37,2013-05-08 13:27:00,
2013-05-08 09:32:00,65.1,60.8,30.08,South,169,0.0,0.0,86,0.00,CLR,,0.00,WeatherDisplay:10.37,2013-05-08 13:32:00,
2013-05-08 09:37:00,65.5,61.2,30.08,South,169,0.0,0.0,86,0.00,CLR,,0.00,WeatherDisplay:10.37,2013-05-08 13:37:00,
2013-05-08 09:42:00,65.9,61.6,30.08,South,169,0.0,0.0,86,0.00,CLR,,0.00,WeatherDisplay:10.37,2013-05-08 13:42:00,
2013-05-08 09:47:00,66.3,61.7,30.08,South,169,0.0,0.0,85,0.00,CLR,,0.00,WeatherDisplay:10.37,2013-05-08 13:47:00,
2013-05-08 09:52:00,66.8,61.8,30.08,South,169,0.0,0.0,84,0.00,CLR,,0.00,WeatherDisplay:10.37,2013-05-08 13:52:00,
2013-05-08 09:57:00,67.2,61.9,30.08,South,169,1.1,1.1,83,0.00,CLR,,0.00,WeatherDisplay:10.37,2013-05-08 13:57:00,
2013-05-08 10:02:00,67.5,61.8,30.08,South,169,0.0,0.0,82,0.00,CLR,,0.00,WeatherDisplay:10.37,2013-05-08 14:02:00,
2013-05-08 10:07:00,67.9,61.9,30.08,South,169,0.0,0.0,81,0.00,CLR,,0.00,WeatherDisplay:10.37,2013-05-08 14:07:00,
2013-05-08 10:12:00,68.3,61.9,30.08,South,169,0.0,0.0,80,0.00,CLR,,0.00,WeatherDisplay:10.37,2013-05-08 14:12:00,
2013-05-08 10:17:00,68.8,61.7,30.08,SW,217,3.5,3.5,78,0.00,CLR,,0.00,WeatherDisplay:10.37,2013-05-08 14:17:00,
2013-05-08 10:22:00,69.4,61.9,30.08,SSW,192,1.1,1.1,77,0.00,CLR,,0.00,WeatherDisplay:10.37,2013-05-08 14:22:00,
2013-05-08 10:27:00,69.9,62.0,30.08,SSW,192,0.0,0.0,76,0.00,CLR,,0.00,WeatherDisplay:10.37,2013-05-08 14:27:00,
2013-05-08 10:32:00,70.2,61.5,30.08,SSW,192,2.3,2.3,74,0.00,CLR,,0.00,WeatherDisplay:10.37,2013-05-08 14:32:00,
2013-05-08 10:37:00,70.6,61.1,30.08,WNW,282,1.1,0.0,72,0.00,CLR,,0.00,WeatherDisplay:10.37,2013-05-08 14:37:00,
2013-05-08 10:42:00,70.9,61.4,30.08,WNW,282,0.0,0.0,72,0.00,CLR,,0.00,WeatherDisplay:10.37,2013-05-08 14:42:00,
2013-05-08 10:47:00,71.3,61.4,30.08,WSW,257,0.0,0.0,71,0.00,CLR,,0.00,WeatherDisplay:10.37,2013-05-08 14:47:00,
2013-05-08 10:52:00,71.6,61.3,30.08,WSW,257,1.1,1.1,70,0.00,CLR,,0.00,WeatherDisplay:10.37,2013-05-08 14:52:00,
2013-05-08 10:57:00,71.8,60.7,30.08,WSW,257,0.0,0.0,68,0.00,CLR,,0.00,WeatherDisplay:10.37,2013-05-08 14:57:00,
2013-05-08 11:02:00,72.1,60.5,30.08,WNW,283,1.1,1.1,67,0.00,CLR,,0.00,WeatherDisplay:10.37,2013-05-08 15:02:00,
2013-05-08 11:07:00,72.3,59.9,30.08,NNE,12,3.0,3.0,65,0.00,CLR,,0.00,WeatherDisplay:10.37,2013-05-08 15:07:00,
2013-05-08 11:12:00,72.4,58.6,30.08,WSW,240,3.5,3.5,62,0.00,CLR,,0.00,WeatherDisplay:10.37,2013-05-08 15:12:00,
2013-05-08 11:17:00,72.8,60.3,30.08,West,271,1.1,0.0,65,0.00,CLR,,0.00,WeatherDisplay:10.37,2013-05-08 15:17:00,
2013-05-08 11:22:00,73.2,59.8,30.08,West,274,1.1,1.1,63,0.00,CLR,,0.00,WeatherDisplay:10.37,2013-05-08 15:22:00,
2013-05-08 11:27:00,73.3,59.5,30.08,NNW,332,1.1,0.0,62,0.00,CLR,,0.00,WeatherDisplay:10.37,2013-05-08 15:27:00,
2013-05-08 11:32:00,73.5,60.1,30.08,North,355,3.5,3.5,63,0.00,CLR,,0.00,WeatherDisplay:10.37,2013-05-08 15:32:00,
2013-05-08 11:37:00,73.8,60.4,30.08,North,355,2.3,2.3,63,0.00,CLR,,0.00,WeatherDisplay:10.37,2013-05-08 15:37:00,
2013-05-08 11:42:00,73.9,60.1,30.08,NNW,340,1.1,1.1,62,0.00,CLR,,0.00,WeatherDisplay:10.37,2013-05-08 15:42:00,
2013-05-08 11:47:00,73.8,59.0,30.08,SW,221,3.5,3.5,60,0.00,CLR,,0.00,WeatherDisplay:10.37,2013-05-08 15:47:00,
2013-05-08 11:52:00,74.2,59.9,30.08,SW,224,1.1,1.1,61,0.00,CLR,,0.00,WeatherDisplay:10.37,2013-05-08 15:52:00,
2013-05-08 11:57:00,75.0,59.2,30.07,SSE,153,4.6,4.6,58,0.00,CLR,,0.00,WeatherDisplay:10.37,2013-05-08 15:57:00,
2013-05-08 12:02:00,75.8,59.5,30.07,North,355,2.3,2.3,57,0.00,CLR,,0.00,WeatherDisplay:10.37,2013-05-08 16:02:00,
2013-05-08 12:07:00,76.4,61.5,30.07,NNW,336,3.5,3.5,60,0.00,CLR,,0.00,WeatherDisplay:10.37,2013-05-08 16:07:00,
2013-05-08 12:12:00,77.0,59.6,30.07,West,261,3.5,3.5,55,0.00,CLR,,0.00,WeatherDisplay:10.37,2013-05-08 16:12:00,
2013-05-08 12:17:00,77.3,60.4,30.07,WSW,254,3.5,0.0,56,0.00,CLR,,0.00,WeatherDisplay:10.37,2013-05-08 16:17:00,
2013-05-08 12:22:00,77.7,59.7,30.07,NNW,339,3.0,3.0,54,0.00,CLR,,0.00,WeatherDisplay:10.37,2013-05-08 16:22:00,
2013-05-08 12:27:00,78.0,60.0,30.07,South,174,3.5,3.5,54,0.00,CLR,,0.00,WeatherDisplay:10.37,2013-05-08 16:27:00,
2013-05-08 12:32:00,78.1,60.6,30.06,WSW,248,3.5,3.5,55,0.00,CLR,,0.00,WeatherDisplay:10.37,2013-05-08 16:32:00,
2013-05-08 12:37:00,78.0,60.0,30.07,WSW,243,2.3,2.3,54,0.00,CLR,,0.00,WeatherDisplay:10.37,2013-05-08 16:37:00,
2013-05-08 12:42:00,77.7,60.2,30.07,SW,232,1.1,1.1,55,0.00,CLR,,0.00,WeatherDisplay:10.37,2013-05-08 16:42:00,
2013-05-08 12:47:00,77.5,59.5,30.06,North,5,3.5,3.5,54,0.00,CLR,,0.00,WeatherDisplay:10.37,2013-05-08 16:47:00,
2013-05-08 12:52:00,77.4,58.9,30.06,WNW,285,9.2,9.2,53,0.00,CLR,,0.00,WeatherDisplay:10.37,2013-05-08 16:52:00,
2013-05-08 12:57:00,77.5,60.6,30.06,WSW,237,0.0,0.0,56,0.00,CLR,,0.00,WeatherDisplay:10.37,2013-05-08 16:57:00,
2013-05-08 13:02:00,77.8,60.3,30.06,WSW,250,2.0,2.0,55,0.00,CLR,,0.00,WeatherDisplay:10.37,2013-05-08 17:02:00,
2013-05-08 13:07:00,78.2,59.7,30.06,SSW,193,4.6,4.6,53,0.00,CLR,,0.00,WeatherDisplay:10.37,2013-05-08 17:07:00,
2013-05-08 13:12:00,78.4,61.4,30.06,NNW,343,3.5,3.5,56,0.00,CLR,,0.00,WeatherDisplay:10.37,2013-05-08 17:12:00,
2013-05-08 13:17:00,78.4,59.9,30.05,SW,221,3.5,3.5,53,0.00,CLR,,0.00,WeatherDisplay:10.37,2013-05-08 17:17:00,
2013-05-08 13:22:00,78.1,59.0,30.05,WSW,246,1.1,0.0,52,0.00,CLR,,0.00,WeatherDisplay:10.37,2013-05-08 17:22:00,
2013-05-08 13:27:00,78.1,60.6,30.05,South,186,1.1,1.1,55,0.00,CLR,,0.00,WeatherDisplay:10.37,2013-05-08 17:27:00,
2013-05-08 13:32:00,78.4,60.9,30.05,NW,316,2.3,2.3,55,0.00,CLR,,0.00,WeatherDisplay:10.37,2013-05-08 17:32:00,
2013-05-08 13:37:00,78.5,59.9,30.05,West,271,0.0,0.0,53,0.00,CLR,,0.00,WeatherDisplay:10.37,2013-05-08 17:37:00,
2013-05-08 13:42:00,78.4,61.4,30.05,NNW,345,3.5,3.5,56,0.00,CLR,,0.00,WeatherDisplay:10.37,2013-05-08 17:42:00,
2013-05-08 13:47:00,78.3,60.8,30.05,North,5,4.6,4.6,55,0.00,CLR,,0.00,WeatherDisplay:10.37,2013-05-08 17:47:00,
2013-05-08 13:52:00,78.5,61.5,30.04,NNW,336,1.1,1.2,56,0.00,CLR,,0.00,WeatherDisplay:10.37,2013-05-08 17:52:00,
2013-05-08 13:57:00,78.7,60.1,30.05,North,9,3.5,3.5,53,0.00,CLR,,0.00,WeatherDisplay:10.37,2013-05-08 17:57:00,
2013-05-08 14:02:00,78.8,62.8,30.05,North,360,2.0,2.0,58,0.00,CLR,,0.00,WeatherDisplay:10.37,2013-05-08 18:02:00,
2013-05-08 14:07:00,79.1,60.5,30.04,North,355,1.1,1.1,53,0.00,CLR,,0.00,WeatherDisplay:10.37,2013-05-08 18:07:00,
2013-05-08 14:12:00,79.1,58.3,30.04,SSW,210,3.0,3.2,49,0.00,CLR,,0.00,WeatherDisplay:10.37,2013-05-08 18:12:00,
2013-05-08 14:17:00,79.1,62.1,30.04,WSW,250,0.0,0.0,56,0.00,CLR,,0.00,WeatherDisplay:10.37,2013-05-08 18:17:00,
2013-05-08 14:22:00,79.3,60.1,30.04,SSW,207,6.9,6.9,52,0.00,CLR,,0.00,WeatherDisplay:10.37,2013-05-08 18:22:00,
2013-05-08 14:27:00,79.4,59.7,30.04,SSE,167,1.1,1.1,51,0.00,CLR,,0.00,WeatherDisplay:10.37,2013-05-08 18:27:00,
2013-05-08 14:32:00,79.8,61.1,30.04,NNW,331,1.1,1.6,53,0.00,CLR,,0.00,WeatherDisplay:10.37,2013-05-08 18:32:00,
2013-05-08 14:37:00,79.9,59.6,30.04,WSW,243,1.1,1.1,50,0.00,CLR,,0.00,WeatherDisplay:10.37,2013-05-08 18:37:00,
2013-05-08 14:42:00,79.9,61.8,30.04,SW,232,1.1,0.0,54,0.00,CLR,,0.00,WeatherDisplay:10.37,2013-05-08 18:42:00,
2013-05-08 14:47:00,80.0,59.1,30.04,SSW,213,3.5,3.5,49,0.00,CLR,,0.00,WeatherDisplay:10.37,2013-05-08 18:47:00,
2013-05-08 14:52:00,79.9,59.0,30.04,South,182,1.1,1.1,49,0.00,CLR,,0.00,WeatherDisplay:10.37,2013-05-08 18:52:00,
2013-05-08 14:57:00,79.6,60.4,30.04,SW,236,3.5,0.0,52,0.00,CLR,,0.00,WeatherDisplay:10.37,2013-05-08 18:57:00,
2013-05-08 15:02:00,79.8,61.1,30.04,SSW,211,4.6,4.6,53,0.00,CLR,,0.00,WeatherDisplay:10.37,2013-05-08 19:02:00,
2013-05-08 15:07:00,80.1,59.8,30.04,WSW,248,3.5,3.5,50,0.00,CLR,,0.00,WeatherDisplay:10.37,2013-05-08 19:07:00,
2013-05-08 15:12:00,80.3,62.1,30.04,West,275,1.1,0.0,54,0.00,CLR,,0.00,WeatherDisplay:10.37,2013-05-08 19:12:00,
2013-05-08 15:17:00,80.4,60.6,30.04,SW,223,1.1,1.1,51,0.00,CLR,,0.00,WeatherDisplay:10.37,2013-05-08 19:17:00,
2013-05-08 15:22:00,80.3,58.8,30.03,WSW,254,4.6,4.6,48,0.00,CLR,,0.00,WeatherDisplay:10.37,2013-05-08 19:22:00,
2013-05-08 15:27:00,80.1,59.8,30.03,North,349,3.5,0.0,50,0.00,CLR,,0.00,WeatherDisplay:10.37,2013-05-08 19:27:00,
2013-05-08 15:32:00,79.9,60.7,30.03,NNW,341,3.5,3.5,52,0.00,CLR,,0.00,WeatherDisplay:10.37,2013-05-08 19:32:00,
2013-05-08 15:37:00,80.1,62.5,30.02,NNW,341,1.1,1.1,55,0.00,CLR,,0.00,WeatherDisplay:10.37,2013-05-08 19:37:00,
2013-05-08 15:42:00,80.3,60.5,30.02,South,190,2.3,2.3,51,0.00,CLR,,0.00,WeatherDisplay:10.37,2013-05-08 19:42:00,
2013-05-08 15:47:00,80.3,58.8,30.02,West,261,3.5,3.5,48,0.00,CLR,,0.00,WeatherDisplay:10.37,2013-05-08 19:47:00,
2013-05-08 15:52:00,80.2,58.7,30.02,West,267,1.1,1.1,48,0.00,CLR,,0.00,WeatherDisplay:10.37,2013-05-08 19:52:00,
2013-05-08 15:57:00,80.0,58.5,30.02,SW,221,1.1,1.1,48,0.00,CLR,,0.00,WeatherDisplay:10.37,2013-05-08 19:57:00,
2013-05-08 16:02:00,79.9,58.5,30.02,West,266,3.5,3.5,48,0.00,CLR,,0.00,WeatherDisplay:10.37,2013-05-08 20:02:00,
2013-05-08 16:07:00,80.1,59.8,30.02,SW,229,0.0,0.1,50,0.00,CLR,,0.00,WeatherDisplay:10.37,2013-05-08 20:07:00,
2013-05-08 16:12:00,80.2,58.7,30.02,SW,232,3.5,3.5,48,0.00,CLR,,0.00,WeatherDisplay:10.37,2013-05-08 20:12:00,
2013-05-08 16:17:00,80.0,58.5,30.02,SSE,163,3.5,3.5,48,0.00,CLR,,0.00,WeatherDisplay:10.37,2013-05-08 20:17:00,
2013-05-08 16:22:00,79.8,59.5,30.01,SSE,163,1.1,0.0,50,0.00,CLR,,0.00,WeatherDisplay:10.37,2013-05-08 20:22:00,
2013-05-08 16:27:00,79.6,58.2,30.02,SW,236,1.1,0.0,48,0.00,CLR,,0.00,WeatherDisplay:10.37,2013-05-08 20:27:00,
2013-05-08 16:32:00,79.7,59.4,30.01,South,178,3.5,3.5,50,0.00,CLR,,0.00,WeatherDisplay:10.37,2013-05-08 20:32:00,
2013-05-08 16:37:00,79.7,58.3,30.01,SW,229,4.6,4.6,48,0.00,CLR,,0.00,WeatherDisplay:10.37,2013-05-08 20:37:00,
2013-05-08 16:42:00,79.6,58.8,30.01,WSW,240,4.6,4.6,49,0.00,CLR,,0.00,WeatherDisplay:10.37,2013-05-08 20:42:00,
2013-05-08 16:47:00,79.6,59.3,30.01,SW,232,2.3,2.3,50,0.00,CLR,,0.00,WeatherDisplay:10.37,2013-05-08 20:47:00,
2013-05-08 16:52:00,79.6,59.9,30.01,West,259,1.1,0.0,51,0.00,CLR,,0.00,WeatherDisplay:10.37,2013-05-08 20:52:00,
2013-05-08 16:57:00,79.7,60.5,30.01,NNE,20,3.0,3.0,52,0.00,CLR,,0.00,WeatherDisplay:10.37,2013-05-08 20:57:00,
2013-05-08 17:02:00,79.9,58.5,30.01,SW,236,3.5,3.5,48,0.00,CLR,,0.00,WeatherDisplay:10.37,2013-05-08 21:02:00,
2013-05-08 17:07:00,79.9,59.6,30.01,South,186,1.0,0.0,50,0.00,CLR,,0.00,WeatherDisplay:10.37,2013-05-08 21:07:00,
2013-05-08 17:12:00,79.9,60.7,30.01,North,349,3.5,3.5,52,0.00,CLR,,0.00,WeatherDisplay:10.37,2013-05-08 21:12:00,
2013-05-08 17:17:00,80.0,60.8,30.01,West,281,1.0,1.0,52,0.00,CLR,,0.00,WeatherDisplay:10.37,2013-05-08 21:17:00,
2013-05-08 17:22:00,80.0,60.2,30.01,North,360,3.5,3.5,51,0.00,CLR,,0.00,WeatherDisplay:10.37,2013-05-08 21:22:00,
2013-05-08 17:27:00,80.0,59.7,30.01,NNW,344,1.1,1.1,50,0.00,CLR,,0.00,WeatherDisplay:10.37,2013-05-08 21:27:00,
2013-05-08 17:32:00,79.9,60.2,30.01,North,355,3.5,3.5,51,0.00,CLR,,0.00,WeatherDisplay:10.37,2013-05-08 21:32:00,
2013-05-08 17:37:00,79.7,59.4,30.01,North,355,1.1,1.1,50,0.00,CLR,,0.00,WeatherDisplay:10.37,2013-05-08 21:37:00,
2013-05-08 17:42:00,79.4,59.7,30.01,NNE,13,1.1,0.0,51,0.00,CLR,,0.00,WeatherDisplay:10.37,2013-05-08 21:42:00,
2013-05-08 17:47:00,79.3,59.6,30.01,NNE,13,1.1,0.0,51,0.00,CLR,,0.00,WeatherDisplay:10.37,2013-05-08 21:47:00,
2013-05-08 17:52:00,79.2,59.0,30.01,ESE,113,5.0,5.0,50,0.00,CLR,,0.00,WeatherDisplay:10.37,2013-05-08 21:52:00,
2013-05-08 17:57:00,79.2,59.0,30.01,SW,229,2.0,2.0,50,0.00,CLR,,0.00,WeatherDisplay:10.37,2013-05-08 21:57:00,
2013-05-08 18:02:00,79.2,60.1,30.01,SSW,212,0.0,0.0,52,0.00,CLR,,0.00,WeatherDisplay:10.37,2013-05-08 22:02:00,
2013-05-08 18:07:00,79.1,59.4,30.02,SW,226,0.0,0.0,51,0.00,CLR,,0.00,WeatherDisplay:10.37,2013-05-08 22:07:00,
2013-05-08 18:12:00,79.1,59.4,30.01,South,182,1.1,1.1,51,0.00,CLR,,0.00,WeatherDisplay:10.37,2013-05-08 22:12:00,
2013-05-08 18:17:00,79.1,59.4,30.01,South,182,0.0,0.0,51,0.00,CLR,,0.00,WeatherDisplay:10.37,2013-05-08 22:17:00,
2013-05-08 18:22:00,79.1,58.9,30.01,ENE,76,0.0,0.0,50,0.00,CLR,,0.00,WeatherDisplay:10.37,2013-05-08 22:22:00,
2013-05-08 18:27:00,78.9,58.7,30.01,NNW,329,1.1,0.0,50,0.00,CLR,,0.00,WeatherDisplay:10.37,2013-05-08 22:27:00,
2013-05-08 18:32:00,78.7,58.5,30.01,NNW,329,0.0,0.0,50,0.00,CLR,,0.00,WeatherDisplay:10.37,2013-05-08 22:32:00,
2013-05-08 18:37:00,78.6,59.0,30.01,WNW,297,0.0,0.0,51,0.00,CLR,,0.00,WeatherDisplay:10.37,2013-05-08 22:37:00,
2013-05-08 18:42:00,78.5,58.9,30.01,NNE,14,1.1,1.1,51,0.00,CLR,,0.00,WeatherDisplay:10.37,2013-05-08 22:42:00,
2013-05-08 18:47:00,78.4,59.3,30.01,WSW,254,0.0,0.0,52,0.00,CLR,,0.00,WeatherDisplay:10.37,2013-05-08 22:47:00,
2013-05-08 18:52:00,78.3,59.2,30.01,WSW,254,0.0,0.0,52,0.00,CLR,,0.00,WeatherDisplay:10.37,2013-05-08 22:52:00,
2013-05-08 18:57:00,78.2,60.7,30.01,WSW,257,0.0,0.0,55,0.00,CLR,,0.00,WeatherDisplay:10.37,2013-05-08 22:57:00,
2013-05-08 19:02:00,78.1,59.0,30.01,WSW,257,0.0,0.0,52,0.00,CLR,,0.00,WeatherDisplay:10.37,2013-05-08 23:02:00,
2013-05-08 19:07:00,78.0,58.9,30.01,WSW,257,0.0,0.0,52,0.00,CLR,,0.00,WeatherDisplay:10.37,2013-05-08 23:07:00,
2013-05-08 19:12:00,77.9,59.4,30.01,WSW,257,1.1,0.0,53,0.00,CLR,,0.00,WeatherDisplay:10.37,2013-05-08 23:12:00,
2013-05-08 19:17:00,77.8,58.8,30.01,WNW,296,0.0,0.2,52,0.00,CLR,,0.00,WeatherDisplay:10.37,2013-05-08 23:17:00,
2013-05-08 19:22:00,77.7,59.2,30.01,WNW,296,0.0,0.0,53,0.00,CLR,,0.00,WeatherDisplay:10.37,2013-05-08 23:22:00,
2013-05-08 19:27:00,77.6,60.2,30.02,WNW,296,0.0,0.0,55,0.00,CLR,,0.00,WeatherDisplay:10.37,2013-05-08 23:27:00,
2013-05-08 19:32:00,77.5,59.0,30.02,North,349,1.1,0.0,53,0.00,CLR,,0.00,WeatherDisplay:10.37,2013-05-08 23:32:00,
2013-05-08 19:37:00,77.2,58.2,30.02,North,349,0.0,0.0,52,0.00,CLR,,0.00,WeatherDisplay:10.37,2013-05-08 23:37:00,
2013-05-08 19:42:00,77.1,58.6,30.02,North,349,0.0,0.0,53,0.00,CLR,,0.00,WeatherDisplay:10.37,2013-05-08 23:42:00,
2013-05-08 19:47:00,76.9,58.5,30.02,North,350,0.0,0.0,53,0.00,CLR,,0.00,WeatherDisplay:10.37,2013-05-08 23:47:00,
2013-05-08 19:52:00,76.6,59.2,30.02,North,350,0.0,0.0,55,0.00,CLR,,0.00,WeatherDisplay:10.37,2013-05-08 23:52:00,
2013-05-08 19:57:00,76.4,58.5,30.02,North,350,0.0,0.0,54,0.00,CLR,,0.00,WeatherDisplay:10.37,2013-05-08 23:57:00,
2013-05-08 20:02:00,76.2,57.8,30.03,North,350,0.0,0.0,53,0.00,CLR,,0.00,WeatherDisplay:10.37,2013-05-09 00:02:00,
2013-05-08 20:07:00,75.9,58.1,30.03,North,350,0.0,0.0,54,0.00,CLR,,0.00,WeatherDisplay:10.37,2013-05-09 00:07:00,
2013-05-08 20:12:00,75.7,57.9,30.03,North,350,0.0,0.0,54,0.00,CLR,,0.00,WeatherDisplay:10.37,2013-05-09 00:12:00,
2013-05-08 20:17:00,75.4,58.1,30.03,North,350,0.0,0.0,55,0.00,CLR,,0.00,WeatherDisplay:10.37,2013-05-09 00:17:00,
2013-05-08 20:22:00,75.1,58.3,30.03,North,350,0.0,0.0,56,0.00,CLR,,0.00,WeatherDisplay:10.37,2013-05-09 00:22:00,
2013-05-08 20:27:00,74.8,58.1,30.03,North,350,0.0,0.0,56,0.00,CLR,,0.00,WeatherDisplay:10.37,2013-05-09 00:27:00,
2013-05-08 20:32:00,74.5,58.3,30.03,North,350,0.0,0.0,57,0.00,CLR,,0.00,WeatherDisplay:10.37,2013-05-09 00:32:00,
2013-05-08 20:37:00,74.2,58.9,30.04,North,350,0.0,0.0,59,0.00,CLR,,0.00,WeatherDisplay:10.37,2013-05-09 00:37:00,
2013-05-08 20:42:00,73.9,58.7,30.04,North,350,0.0,0.0,59,0.00,CLR,,0.00,WeatherDisplay:10.37,2013-05-09 00:42:00,
2013-05-08 20:47:00,73.5,58.3,30.04,North,350,0.0,0.0,59,0.00,CLR,,0.00,WeatherDisplay:10.37,2013-05-09 00:47:00,
2013-05-08 20:52:00,73.3,59.0,30.04,North,350,0.0,0.0,61,0.00,CLR,,0.00,WeatherDisplay:10.37,2013-05-09 00:52:00,
2013-05-08 20:57:00,72.8,59.5,30.04,North,350,0.0,0.0,63,0.00,CLR,,0.00,WeatherDisplay:10.37,2013-05-09 00:57:00,
2013-05-08 21:02:00,72.4,59.5,30.04,North,350,0.0,0.0,64,0.00,CLR,,0.00,WeatherDisplay:10.37,2013-05-09 01:02:00,
2013-05-08 21:07:00,72.1,59.7,30.05,North,350,0.0,0.0,65,0.00,CLR,,0.00,WeatherDisplay:10.37,2013-05-09 01:07:00,
2013-05-08 21:12:00,71.8,59.8,30.05,North,350,0.0,0.0,66,0.00,CLR,,0.00,WeatherDisplay:10.37,2013-05-09 01:12:00,
2013-05-08 21:17:00,71.5,60.4,30.05,North,350,0.0,0.0,68,0.00,CLR,,0.00,WeatherDisplay:10.37,2013-05-09 01:17:00,
2013-05-08 21:22:00,71.2,60.1,30.06,North,350,0.0,0.0,68,0.00,CLR,,0.00,WeatherDisplay:10.37,2013-05-09 01:22:00,
2013-05-08 21:27:00,70.9,59.8,30.06,North,350,0.0,0.0,68,0.00,CLR,,0.00,WeatherDisplay:10.37,2013-05-09 01:27:00,
2013-05-08 21:32:00,70.6,59.9,30.06,North,350,0.0,0.0,69,0.00,CLR,,0.00,WeatherDisplay:10.37,2013-05-09 01:32:00,
2013-05-08 21:37:00,70.4,60.1,30.06,North,350,0.0,0.0,70,0.00,CLR,,0.00,WeatherDisplay:10.37,2013-05-09 01:37:00,
2013-05-08 21:42:00,70.1,60.3,30.06,North,350,0.0,0.0,71,0.00,CLR,,0.00,WeatherDisplay:10.37,2013-05-09 01:42:00,
2013-05-08 21:47:00,69.9,60.5,30.06,North,350,0.0,0.0,72,0.00,CLR,,0.00,WeatherDisplay:10.37,2013-05-09 01:47:00,
2013-05-08 21:52:00,69.7,60.7,30.06,North,350,0.0,0.0,73,0.00,CLR,,0.00,WeatherDisplay:10.37,2013-05-09 01:52:00,
2013-05-08 21:57:00,69.5,60.8,30.07,North,350,0.0,0.0,74,0.00,CLR,,0.00,WeatherDisplay:10.37,2013-05-09 01:57:00,
2013-05-08 22:02:00,69.2,60.2,30.07,North,350,0.0,0.0,73,0.00,CLR,,0.00,WeatherDisplay:10.37,2013-05-09 02:02:00,
2013-05-08 22:07:00,69.0,60.4,30.07,North,350,0.0,0.0,74,0.00,CLR,,0.00,WeatherDisplay:10.37,2013-05-09 02:07:00,
2013-05-08 22:12:00,68.8,60.6,30.07,North,350,0.0,0.0,75,0.00,CLR,,0.00,WeatherDisplay:10.37,2013-05-09 02:12:00,
2013-05-08 22:17:00,68.6,60.4,30.07,North,350,0.0,0.0,75,0.00,CLR,,0.00,WeatherDisplay:10.37,2013-05-09 02:17:00,
2013-05-08 22:22:00,68.4,60.2,30.07,North,350,0.0,0.0,75,0.00,CLR,,0.00,WeatherDisplay:10.37,2013-05-09 02:22:00,
2013-05-08 22:27:00,68.3,60.4,30.07,North,350,0.0,0.0,76,0.00,CLR,,0.00,WeatherDisplay:10.37,2013-05-09 02:27:00,
2013-05-08 22:32:00,68.2,60.3,30.07,North,350,0.0,0.0,76,0.00,CLR,,0.00,WeatherDisplay:10.37,2013-05-09 02:32:00,
2013-05-08 22:37:00,68.1,60.6,30.08,North,350,0.0,0.0,77,0.00,CLR,,0.00,WeatherDisplay:10.37,2013-05-09 02:37:00,
2013-05-08 22:42:00,68.1,60.2,30.08,North,350,0.0,0.0,76,0.00,CLR,,0.00,WeatherDisplay:10.37,2013-05-09 02:42:00,
2013-05-08 22:47:00,68.1,60.6,30.08,North,350,0.0,0.0,77,0.00,CLR,,0.00,WeatherDisplay:10.37,2013-05-09 02:47:00,
2013-05-08 22:52:00,68.2,60.7,30.08,West,260,1.0,1.0,77,0.00,CLR,,0.00,WeatherDisplay:10.37,2013-05-09 02:52:00,
2013-05-08 22:57:00,68.2,60.3,30.08,WSW,243,1.1,1.1,76,0.00,CLR,,0.00,WeatherDisplay:10.37,2013-05-09 02:57:00,
2013-05-08 23:02:00,68.4,60.5,30.08,SW,214,0.0,0.0,76,0.00,CLR,,0.00,WeatherDisplay:10.37,2013-05-09 03:02:00,
2013-05-08 23:07:00,68.5,60.6,30.08,SW,219,1.1,0.0,76,0.00,CLR,,0.00,WeatherDisplay:10.37,2013-05-09 03:07:00,
2013-05-08 23:12:00,68.5,60.6,30.09,WSW,242,1.1,0.0,76,0.00,CLR,,0.00,WeatherDisplay:10.37,2013-05-09 03:12:00,
2013-05-08 23:17:00,68.6,61.1,30.09,WSW,238,1.1,1.1,77,0.00,CLR,,0.00,WeatherDisplay:10.37,2013-05-09 03:17:00,
2013-05-08 23:22:00,68.6,61.1,30.08,SSW,197,0.0,0.1,77,0.00,CLR,,0.00,WeatherDisplay:10.37,2013-05-09 03:22:00,
2013-05-08 23:27:00,68.6,61.1,30.08,WSW,248,5.0,5.0,77,0.00,CLR,,0.00,WeatherDisplay:10.37,2013-05-09 03:27:00,
2013-05-08 23:32:00,68.7,61.2,30.09,WSW,241,1.1,1.1,77,0.00,CLR,,0.00,WeatherDisplay:10.37,2013-05-09 03:32:00,
2013-05-08 23:37:00,68.6,61.1,30.09,SW,236,1.1,0.0,77,0.00,CLR,,0.00,WeatherDisplay:10.37,2013-05-09 03:37:00,
2013-05-08 23:42:00,68.6,61.1,30.09,SSW,194,0.0,0.0,77,0.00,CLR,,0.00,WeatherDisplay:10.37,2013-05-09 03:42:00,
2013-05-08 23:47:00,68.5,61.4,30.08,SW,218,3.5,3.5,78,0.00,CLR,,0.00,WeatherDisplay:10.37,2013-05-09 03:47:00,
2013-05-08 23:52:00,68.4,61.3,30.09,NNE,32,0.0,0.0,78,0.00,CLR,,0.00,WeatherDisplay:10.37,2013-05-09 03:52:00,
2013-05-08 23:57:00,68.3,61.5,30.09,North,355,0.0,0.0,79,0.00,CLR,,0.00,WeatherDisplay:10.37,2013-05-09 03:57:00,